HALLI_(FIN-AFB) current weather conditions

sailwx.info

Last reported at 2020-Jan-17 18:30 UTC.
Time now 2020-Jan-17 18:55 UTC

Location: N 61°51' E 024°48'.
View on Google Maps.

See reports from other nearby stations

  
Tides and Currents Weather Stations Pressure Air Temp Water Temp Dewpoint Dewpoint Depression Visibility Wind Speed Wind Dir Waves Ship Positions
date/time (UTC)wind fromknots sea level pressurealtimeterstation pressurevisibilityair tempwater tempwave heightnotes
2020-Jan-17 17:50 210 7 5.4 4.0
2020-Jan-17 17:20 200 7 5.4 4.0
2020-Jan-17 16:50 190 7 5.4 3.0
2020-Jan-17 16:20 180 8 5.4 3.0
2020-Jan-17 15:50 180 7 5.4 3.0
2020-Jan-17 15:20 190 7 5.4 3.0
2020-Jan-17 14:50 180 7 5.4 3.0
2020-Jan-17 14:20 190 7 5.4 3.0 Light rain showers.
2020-Jan-17 13:50 190 6 5.4 3.0 Light rain showers.
2020-Jan-17 13:20 210 7 5.4 3.0 Drizzle.
2020-Jan-17 12:50 230 7 5.4 3.0
2020-Jan-17 12:20 230 9 5.4 3.0
2020-Jan-17 11:50 220 7 5.4 3.0
2020-Jan-17 11:20 240 7 5.4 3.0
2020-Jan-17 10:50 230 6 5.4 3.0
2020-Jan-17 10:20 230 7 5.4 3.0
2020-Jan-17 09:50 230 6 5.4 3.0
2020-Jan-17 09:20 240 8 5.4 2.0
2020-Jan-17 08:50 220 7 5.4 2.0
2020-Jan-17 08:20 200 6 5.4 2.0
2020-Jan-17 07:50 200 6 5.4 2.0
2020-Jan-17 07:20 220 6 5.4 2.0
2020-Jan-17 06:50 230 6 5.4 2.0
2020-Jan-17 06:20 240 7 5.4 2.0
2020-Jan-17 05:50 240 6 5.4 2.0
2020-Jan-17 05:20 240 6 5.4 2.0
2020-Jan-17 04:50 240 8 5.4 2.0
2020-Jan-17 04:20 250 5 5.4 2.0
2020-Jan-17 03:50 230 6 5.4 2.0
2020-Jan-17 03:20 220 6 5.4 2.0
2020-Jan-17 02:50 250 6 5.4 2.0
2020-Jan-17 02:20 240 7 5.4 2.0
2020-Jan-17 01:50 250 6 5.4 2.0
2020-Jan-17 01:20 240 4 5.4 2.0
2020-Jan-17 00:50 230 6 5.4 2.0
2020-Jan-17 00:20 220 4 5.4 2.0
2020-Jan-16 23:50 240 4 5.4 2.0
2020-Jan-16 23:20 210 4 5.4 2.0
2020-Jan-16 22:50 170 4 5.4 1.0
2020-Jan-16 22:20 150 2 5.4 2.0
2020-Jan-16 21:50 220 4 5.4 2.0
2020-Jan-16 21:20 230 5 5.4 2.0
2020-Jan-16 20:50 210 5 5.4 2.0
2020-Jan-16 20:20 240 7 5.4 3.0
2020-Jan-16 19:50 220 6 5.4 3.0
2020-Jan-16 19:20 220 5 5.4 3.0
2020-Jan-16 18:50 230 6 5.4 3.0
2020-Jan-16 18:20 230 6 5.4 4.0
2020-Jan-16 17:50 230 5 5.4 4.0
2020-Jan-16 17:20 220 5 5.4 4.0
2020-Jan-16 16:50 210 5 5.4 4.0
2020-Jan-16 16:20 210 5 5.4 3.0
2020-Jan-16 15:50 220 5 5.4 3.0 Light rain showers.
2020-Jan-16 15:20 210 5 5.4 3.0
2020-Jan-16 14:50 220 5 5.4 3.0 Light rain showers.
2020-Jan-16 14:20 230 6 5.4 4.0 Light rain showers.
2020-Jan-16 13:50 220 5 5.4 4.0
2020-Jan-16 13:20 240 6 5.4 4.0
2020-Jan-16 12:50 240 6 5.4 4.0
2020-Jan-16 12:20 230 5 5.4 4.0
2020-Jan-16 11:50 230 6 5.4 4.0
2020-Jan-16 11:20 220 6 5.4 3.0
2020-Jan-16 10:50 240 7 5.4 4.0
2020-Jan-16 10:20 220 6 5.4 3.0
2020-Jan-16 09:50 230 6 5.4 3.0
2020-Jan-16 09:20 230 6 5.4 3.0
2020-Jan-16 08:50 230 5 5.4 3.0
2020-Jan-16 08:20 210 4 5.4 3.0
2020-Jan-16 07:50 210 4 5.4 3.0
2020-Jan-16 07:20 240 5 5.4 3.0
2020-Jan-16 06:50 240 5 5.4 3.0
2020-Jan-16 06:20 240 6 5.4 3.0
2020-Jan-16 05:50 230 5 5.4 3.0
2020-Jan-16 05:20 220 5 5.4 3.0
2020-Jan-16 04:50 230 5 5.4 3.0
2020-Jan-16 04:20 250 6 5.4 3.0
2020-Jan-16 03:50 230 6 5.4 3.0
2020-Jan-16 03:20 230 6 5.4 2.0
2020-Jan-16 02:50 230 5 5.4 2.0
2020-Jan-16 02:20 220 6 5.4 2.0
2020-Jan-16 01:50 220 6 5.4 2.0
2020-Jan-16 01:20 200 6 5.4 2.0
2020-Jan-16 00:50 210 6 5.4 2.0
2020-Jan-16 00:20 230 6 5.4 2.0
2020-Jan-15 23:50 230 6 5.4 3.0
2020-Jan-15 23:20 230 7 5.4 3.0
2020-Jan-15 22:50 240 9 5.4 3.0
2020-Jan-15 22:20 250 12 5.4 3.0
2020-Jan-15 21:50 240 11 5.4 3.0
2020-Jan-15 21:20 240 12 5.4 3.0
2020-Jan-15 20:50 240 13 5.4 3.0
2020-Jan-15 20:20 240 13 gusting 22 5.4 3.0
2020-Jan-15 19:50 240 13 5.4 4.0
2020-Jan-15 19:20 240 13 5.4 4.0
2020-Jan-15 18:50 240 14 5.4 4.0
2020-Jan-15 18:20 240 14 5.4 5.0